,,Stat5,,Stat1,,Stat2,,Stat3,,Stat4,,Wind1,,Wind1,
time,status,PA1M_AVG,status,PR1M_SUM,status,RH1M_AVG,status,SR1M_AVG,status,TA1M_AVG,status,W1dAve1m,status,W1sAve1m,
2003-02-01, 00:00:01,VALID,920.348,VALID,0,VALID,95.9133,VALID,-0.0509425,VALID,19.105,VALID,98,VALID,1.07648,
2003-02-01, 00:01:00,VALID,920.333,VALID,0,VALID,94.9583,VALID,-0.0339617,VALID,19.0883,VALID,102,VALID,1.1654,
2003-02-01, 00:02:00,VALID,920.313,VALID,0,VALID,94.8057,VALID,-0.0849042,VALID,19.1729,VALID,42,VALID,1.82402,
2003-02-01, 00:03:00,VALID,920.327,VALID,0,VALID,94.3124,VALID,-0.0339617,VALID,19.2504,VALID,98,VALID,1.39236,
2003-02-01, 00:04:00,VALID,920.308,VALID,0,VALID,93.9754,VALID,-0.0679233,VALID,19.273,VALID,125,VALID,1.48037,
2003-02-01, 00:05:00,VALID,920.306,VALID,0,VALID,93.9169,VALID,-0.0509425,VALID,19.3019,VALID,129,VALID,1.02878,
2003-02-01, 00:06:00,VALID,920.287,VALID,0,VALID,93.9678,VALID,-0.0849042,VALID,19.3347,VALID,71,VALID,0.848818,
2003-02-01, 00:07:00,VALID,920.271,VALID,0,VALID,94.203,VALID,-0.0679233,VALID,19.3509,VALID,12,VALID,0.971284,
2003-02-01, 00:08:00,VALID,920.272,VALID,0,VALID,94.4408,VALID,-0.101885,VALID,19.3509,VALID,7,VALID,0.256944,
2003-02-01, 00:09:00,VALID,920.253,VALID,0,VALID,94.5336,VALID,-0.0509425,VALID,19.3352,VALID,91,VALID,0.462941,
2003-02-01, 00:10:00,VALID,920.238,VALID,0,VALID,94.4026,VALID,-0.0339617,VALID,19.2991,VALID,108,VALID,1.07969,
2003-02-01, 00:11:00,VALID,920.252,VALID,0,VALID,94.1928,VALID,-0.0169808,VALID,19.2765,VALID,102,VALID,1.37438,
2003-02-01, 00:12:00,VALID,920.274,VALID,0,VALID,94.2729,VALID,-0.0679233,VALID,19.2827,VALID,76,VALID,1.06811,
2003-02-01, 00:13:00,VALID,920.257,VALID,0,VALID,94.2081,VALID,-0.0509425,VALID,19.2987,VALID,91,VALID,1.03845,
2003-02-01, 00:14:00,VALID,920.265,VALID,0,VALID,93.866,VALID,-0.0679233,VALID,19.3123,VALID,110,VALID,1.36637,
2003-02-01, 00:15:00,VALID,920.265,VALID,0,VALID,94.0593,VALID,-0.0679233,VALID,19.3282,VALID,142,VALID,1.50171,
2003-02-01, 00:16:00,VALID,920.207,VALID,0,VALID,94.0873,VALID,-0.0339617,VALID,19.3218,VALID,141,VALID,1.34756,
2003-02-01, 00:17:00,VALID,920.176,VALID,0,VALID,93.0522,VALID,-0.101885,VALID,19.3091,VALID,97,VALID,1.46361,
2003-02-01, 00:18:00,VALID,920.171,VALID,0,VALID,92.9988,VALID,-0.0849042,VALID,19.3772,VALID,54,VALID,1.503,
2003-02-01, 00:19:00,VALID,920.221,VALID,0,VALID,93.5748,VALID,-0.0849042,VALID,19.4187,VALID,70,VALID,1.46254,
2003-02-01, 00:20:00,VALID,920.219,VALID,0,VALID,93.8431,VALID,0,VALID,19.3653,VALID,132,VALID,1.39263,
2003-02-01, 00:21:00,VALID,920.159,VALID,0,VALID,93.9461,VALID,0,VALID,19.327,VALID,148,VALID,1.1324,
2003-02-01, 00:22:00,VALID,920.116,VALID,0,VALID,94.362,VALID,0,VALID,19.3203,VALID,41,VALID,0.340872,
2003-02-01, 00:23:00,VALID,920.128,VALID,0,VALID,94.025,VALID,0.0169808,VALID,19.3106,VALID,25,VALID,1.87224,
2003-02-01, 00:24:00,VALID,920.135,VALID,0,VALID,92.63,VALID,0.0169808,VALID,19.418,VALID,23,VALID,2.58086,
2003-02-01, 00:25:00,VALID,920.109,VALID,0,VALID,92.0718,VALID,0,VALID,19.5242,VALID,37,VALID,1.79379,
2003-02-01, 00:26:00,VALID,920.11,VALID,0,VALID,92.4787,VALID,0.0169808,VALID,19.5662,VALID,92,VALID,0.686849,
2003-02-01, 00:27:01,VALID,920.11,VALID,0,VALID,92.7432,VALID,0.0339617,VALID,19.5299,VALID,106,VALID,0.528505,
2003-02-01, 00:28:00,VALID,920.112,VALID,0,VALID,93.0497,VALID,0.0169808,VALID,19.4918,VALID,125,VALID,0.453526,
2003-02-01, 00:29:00,VALID,920.116,VALID,0,VALID,93.2913,VALID,0,VALID,19.4655,VALID,132,VALID,0.220898,
2003-02-01, 00:30:00,VALID,920.13,VALID,0,VALID,93.6791,VALID,0.0679233,VALID,19.4364,VALID,125,VALID,0.403646,
2003-02-01, 00:31:00,VALID,920.152,VALID,0,VALID,94.0339,VALID,0.0169808,VALID,19.4168,VALID,310,VALID,0.190625,
2003-02-01, 00:32:00,VALID,920.14,VALID,0,VALID,94.2882,VALID,0.0339617,VALID,19.3845,VALID,244,VALID,0.35332,
2003-02-01, 00:33:00,VALID,920.093,VALID,0,VALID,94.4713,VALID,0.0339617,VALID,19.3529,VALID,198,VALID,0.207559,
2003-02-01, 00:34:00,VALID,920.102,VALID,0,VALID,94.6824,VALID,0,VALID,19.3076,VALID,132,VALID,0.135557,
2003-02-01, 00:35:00,VALID,920.114,VALID,0,VALID,94.9583,VALID,-0.0509425,VALID,19.2636,VALID,107,VALID,0.0921875,
2003-02-01, 00:36:00,VALID,920.117,VALID,0.2,VALID,95.0524,VALID,-0.0679233,VALID,19.2116,VALID,107,VALID,0.126563,
2003-02-01, 00:37:00,VALID,920.119,VALID,0,VALID,95.0728,VALID,-0.0849042,VALID,19.2024,VALID,208,VALID,0.339648,
2003-02-01, 00:38:00,VALID,920.11,VALID,0,VALID,95.1224,VALID,-0.101885,VALID,19.2059,VALID,227,VALID,0.535457,
2003-02-01, 00:39:01,VALID,920.095,VALID,0,VALID,95.1936,VALID,-0.101885,VALID,19.1962,VALID,214,VALID,0.278783,
2003-02-01, 00:40:01,VALID,920.091,VALID,0,VALID,95.4072,VALID,-0.0679233,VALID,19.1826,VALID,174,VALID,0.575247,
2003-02-01, 00:41:01,VALID,920.083,VALID,0,VALID,95.5051,VALID,-0.101885,VALID,19.1763,VALID,159,VALID,0.653045,
2003-02-01, 00:42:00,VALID,920.069,VALID,0,VALID,95.5217,VALID,-0.0509425,VALID,19.1639,VALID,140,VALID,0.65625,
2003-02-01, 00:43:00,VALID,920.06,VALID,0,VALID,95.5649,VALID,-0.0849042,VALID,19.144,VALID,143,VALID,0.550253,
2003-02-01, 00:44:00,VALID,920.07,VALID,0,VALID,95.5713,VALID,-0.0849042,VALID,19.1338,VALID,153,VALID,0.530449,
2003-02-01, 00:45:00,VALID,920.056,VALID,0,VALID,95.6259,VALID,-0.0849042,VALID,19.1249,VALID,153,VALID,0.473558,
2003-02-01, 00:46:00,VALID,920.039,VALID,0,VALID,95.7671,VALID,-0.0849042,VALID,19.1179,VALID,175,VALID,1.18349,
2003-02-01, 00:47:01,VALID,920.011,VALID,0,VALID,95.6933,VALID,-0.0849042,VALID,19.1117,VALID,176,VALID,1.40182,
2003-02-01, 00:48:00,VALID,919.975,VALID,0,VALID,95.6399,VALID,-0.0679233,VALID,19.1415,VALID,171,VALID,1.07266,
2003-02-01, 00:49:01,VALID,919.961,VALID,0,VALID,95.3576,VALID,-0.101885,VALID,19.1408,VALID,172,VALID,1.40855,
2003-02-01, 00:50:00,VALID,919.961,VALID,0,VALID,95.4619,VALID,-0.0849042,VALID,19.1826,VALID,132,VALID,0.649465,
2003-02-01, 00:51:00,VALID,919.961,VALID,0,VALID,95.6819,VALID,-0.0849042,VALID,19.2121,VALID,142,VALID,0.542067,
2003-02-01, 00:52:00,VALID,919.934,VALID,0,VALID,95.8624,VALID,-0.0849042,VALID,19.2091,VALID,152,VALID,0.370066,
2003-02-01, 00:53:00,VALID,919.922,VALID,0,VALID,95.8955,VALID,-0.101885,VALID,19.1798,VALID,149,VALID,0.908717,
2003-02-01, 00:54:00,VALID,919.912,VALID,0.2,VALID,95.8879,VALID,-0.101885,VALID,19.1636,VALID,145,VALID,0.73266,
2003-02-01, 00:55:00,VALID,919.901,VALID,0,VALID,95.9693,VALID,-0.0509425,VALID,19.1442,VALID,139,VALID,0.217949,
2003-02-01, 00:56:01,VALID,919.899,VALID,0,VALID,96.1562,VALID,-0.0679233,VALID,19.1505,VALID,138,VALID,0.00760691,
2003-02-01, 00:57:00,VALID,919.902,VALID,0,VALID,96.2617,VALID,-0.0849042,VALID,19.144,VALID,145,VALID,0.754407,
2003-02-01, 00:58:00,VALID,919.889,VALID,0,VALID,96.2223,VALID,-0.118866,VALID,19.1346,VALID,146,VALID,1.13602,
2003-02-01, 00:59:00,VALID,919.874,VALID,0,VALID,96.1409,VALID,-0.101885,VALID,19.1348,VALID,157,VALID,1.21334,
2003-02-01, 01:00:01,VALID,919.862,VALID,0,VALID,96.1384,VALID,-0.101885,VALID,19.1251,VALID,160,VALID,0.872122,
2003-02-01, 01:01:00,VALID,919.868,VALID,0,VALID,96.2249,VALID,-0.0509425,VALID,19.1318,VALID,152,VALID,0.923725,
2003-02-01, 01:02:00,VALID,919.863,VALID,0,VALID,96.2719,VALID,-0.101885,VALID,19.1249,VALID,158,VALID,0.594899,
2003-02-01, 01:03:00,VALID,919.857,VALID,0,VALID,96.2503,VALID,-0.101885,VALID,19.1211,VALID,165,VALID,0.678711,
2003-02-01, 01:04:00,VALID,919.852,VALID,0,VALID,96.1905,VALID,-0.0849042,VALID,19.1117,VALID,173,VALID,0.525082,
2003-02-01, 01:05:00,VALID,919.845,VALID,0,VALID,96.1918,VALID,0,VALID,19.1239,VALID,174,VALID,1.07639,
2003-02-01, 01:06:01,VALID,919.791,VALID,0,VALID,96.221,VALID,0.0339617,VALID,19.107,VALID,171,VALID,1.3655,
2003-02-01, 01:07:01,VALID,919.785,VALID,0,VALID,96.2897,VALID,0.0169808,VALID,19.1102,VALID,158,VALID,0.866797,
2003-02-01, 01:08:00,VALID,919.784,VALID,0,VALID,96.352,VALID,0.0169808,VALID,19.1001,VALID,150,VALID,0.942773,
2003-02-01, 01:09:00,VALID,919.785,VALID,0,VALID,96.4003,VALID,0.0169808,VALID,19.1073,VALID,152,VALID,0.848357,
2003-02-01, 01:10:00,VALID,919.775,VALID,0,VALID,96.3584,VALID,0.0339617,VALID,19.0874,VALID,170,VALID,0.802344,
2003-02-01, 01:11:00,VALID,919.744,VALID,0,VALID,96.2897,VALID,0.0169808,VALID,19.0911,VALID,158,VALID,0.819727,
2003-02-01, 01:12:00,VALID,919.735,VALID,0.2,VALID,96.3457,VALID,0.0679233,VALID,19.0846,VALID,170,VALID,0.657517,
2003-02-01, 01:13:00,VALID,919.715,VALID,0,VALID,96.4309,VALID,0.0339617,VALID,19.0876,VALID,165,VALID,0.539274,
2003-02-01, 01:14:00,VALID,919.735,VALID,0,VALID,96.511,VALID,0,VALID,19.0846,VALID,160,VALID,0.551562,
2003-02-01, 01:15:00,VALID,919.715,VALID,0,VALID,96.5657,VALID,0.0169808,VALID,19.0814,VALID,170,VALID,0.94375,
2003-02-01, 01:16:00,VALID,919.672,VALID,0,VALID,96.4156,VALID,0,VALID,19.0655,VALID,171,VALID,1.37871,
2003-02-01, 01:17:00,VALID,919.658,VALID,0,VALID,96.2757,VALID,0,VALID,19.0717,VALID,176,VALID,1.33433,
2003-02-01, 01:18:01,VALID,919.646,VALID,0,VALID,96.1562,VALID,0.0339617,VALID,19.0976,VALID,181,VALID,0.893709,
2003-02-01, 01:19:01,VALID,919.663,VALID,0,VALID,96.16,VALID,0.0169808,VALID,19.1336,VALID,95,VALID,1.01953,
2003-02-01, 01:20:01,VALID,919.682,VALID,0,VALID,96.0354,VALID,0.0169808,VALID,19.1227,VALID,107,VALID,0.407252,
2003-02-01, 01:21:00,VALID,919.659,VALID,0,VALID,95.9985,VALID,0.0339617,VALID,19.1356,VALID,130,VALID,0.322656,
2003-02-01, 01:22:00,VALID,919.636,VALID,0,VALID,95.968,VALID,0,VALID,19.1495,VALID,139,VALID,0.416596,
2003-02-01, 01:23:00,VALID,919.631,VALID,0,VALID,95.9248,VALID,0.0509425,VALID,19.1617,VALID,178,VALID,0.324519,
2003-02-01, 01:24:01,VALID,919.617,VALID,0,VALID,95.9197,VALID,0,VALID,19.162,VALID,173,VALID,0.442708,
2003-02-01, 01:25:00,VALID,919.597,VALID,0,VALID,95.912,VALID,0,VALID,19.1622,VALID,166,VALID,0.46136,
2003-02-01, 01:26:01,VALID,919.579,VALID,0,VALID,95.9286,VALID,0.0849042,VALID,19.1423,VALID,168,VALID,0.667863,
2003-02-01, 01:27:00,VALID,919.572,VALID,0,VALID,95.8968,VALID,0.0509425,VALID,19.1257,VALID,164,VALID,0.724414,
2003-02-01, 01:28:01,VALID,919.567,VALID,0,VALID,95.8803,VALID,0,VALID,19.1329,VALID,162,VALID,0.596967,
2003-02-01, 01:29:00,VALID,919.547,VALID,0,VALID,95.9769,VALID,0.0339617,VALID,19.1264,VALID,146,VALID,0.332237,
2003-02-01, 01:30:00,VALID,919.544,VALID,0,VALID,96.216,VALID,0.0169808,VALID,19.1326,VALID,128,VALID,0.164864,
2003-02-01, 01:31:00,VALID,919.535,VALID,0,VALID,96.4652,VALID,0.0339617,VALID,19.1363,VALID,59,VALID,0.452097,
2003-02-01, 01:32:00,VALID,919.527,VALID,0,VALID,96.5453,VALID,0.0169808,VALID,19.1095,VALID,61,VALID,0.436472,
2003-02-01, 01:33:00,VALID,919.516,VALID,0,VALID,96.647,VALID,0.0169808,VALID,19.0842,VALID,115,VALID,0.383956,
2003-02-01, 01:34:01,VALID,919.491,VALID,0,VALID,96.7577,VALID,-0.0169808,VALID,19.0623,VALID,137,VALID,0.49399,
2003-02-01, 01:35:01,VALID,919.485,VALID,0,VALID,96.8772,VALID,-0.101885,VALID,19.0371,VALID,156,VALID,0.641036,
2003-02-01, 01:36:00,VALID,919.466,VALID,0,VALID,96.9688,VALID,-0.0849042,VALID,19.0184,VALID,152,VALID,0.424479,
2003-02-01, 01:37:01,VALID,919.45,VALID,0,VALID,97.0984,VALID,-0.0849042,VALID,19.0087,VALID,146,VALID,0.332332,
2003-02-01, 01:38:00,VALID,919.427,VALID,0.2,VALID,97.2154,VALID,-0.0679233,VALID,18.9921,VALID,147,VALID,0.365184,
2003-02-01, 01:39:01,VALID,919.405,VALID,0,VALID,97.2434,VALID,-0.0849042,VALID,18.9727,VALID,156,VALID,0.71361,
2003-02-01, 01:40:00,VALID,919.389,VALID,0,VALID,97.3095,VALID,-0.0849042,VALID,18.9727,VALID,128,VALID,0.401316,
2003-02-01, 01:41:00,VALID,919.397,VALID,0,VALID,97.3706,VALID,-0.0679233,VALID,18.9859,VALID,94,VALID,0.579963,
2003-02-01, 01:42:00,VALID,919.385,VALID,0,VALID,97.3833,VALID,-0.101885,VALID,18.973,VALID,64,VALID,0.707227,
2003-02-01, 01:43:00,VALID,919.389,VALID,0,VALID,97.3693,VALID,-0.101885,VALID,18.9695,VALID,84,VALID,0.601357,
2003-02-01, 01:44:00,VALID,919.383,VALID,0,VALID,97.2396,VALID,-0.101885,VALID,18.957,VALID,104,VALID,0.435981,
2003-02-01, 01:45:01,VALID,919.384,VALID,0,VALID,97.1417,VALID,-0.101885,VALID,18.96,VALID,106,VALID,0.616132,
2003-02-01, 01:46:01,VALID,919.367,VALID,0,VALID,97.0667,VALID,-0.101885,VALID,18.9834,VALID,100,VALID,0.622266,
2003-02-01, 01:47:00,VALID,919.352,VALID,0,VALID,97.0336,VALID,-0.101885,VALID,19.0025,VALID,99,VALID,0.508008,
2003-02-01, 01:48:00,VALID,919.328,VALID,0,VALID,96.8251,VALID,-0.0849042,VALID,18.9891,VALID,109,VALID,0.782252,
2003-02-01, 01:49:00,VALID,919.313,VALID,0,VALID,96.5758,VALID,-0.101885,VALID,18.9991,VALID,118,VALID,1.04863,
2003-02-01, 01:50:00,VALID,919.29,VALID,0,VALID,96.2719,VALID,-0.101885,VALID,19.015,VALID,127,VALID,0.845508,
2003-02-01, 01:51:00,VALID,919.275,VALID,0,VALID,96.0964,VALID,-0.101885,VALID,19.0582,VALID,149,VALID,0.741132,
2003-02-01, 01:52:00,VALID,919.263,VALID,0,VALID,96.132,VALID,-0.101885,VALID,19.0833,VALID,138,VALID,0.726774,
2003-02-01, 01:53:00,VALID,919.245,VALID,0,VALID,96.188,VALID,-0.0849042,VALID,19.0868,VALID,135,VALID,0.70918,
2003-02-01, 01:54:01,VALID,919.239,VALID,0,VALID,96.1918,VALID,-0.101885,VALID,19.0739,VALID,134,VALID,0.75558,
2003-02-01, 01:55:00,VALID,919.207,VALID,0,VALID,96.2312,VALID,-0.101885,VALID,19.0669,VALID,163,VALID,1.11543,
2003-02-01, 01:56:00,VALID,919.136,VALID,0,VALID,96.2427,VALID,-0.101885,VALID,19.0473,VALID,169,VALID,0.873998,
2003-02-01, 01:57:01,VALID,919.101,VALID,0,VALID,96.3711,VALID,-0.101885,VALID,19.0538,VALID,113,VALID,0.618215,
2003-02-01, 01:58:01,VALID,919.105,VALID,0,VALID,96.5059,VALID,-0.101885,VALID,19.0445,VALID,71,VALID,1.0222,
2003-02-01, 01:59:01,VALID,919.086,VALID,0,VALID,96.5835,VALID,-0.101885,VALID,19.0212,VALID,86,VALID,0.996194,
2003-02-01, 02:00:00,VALID,919.062,VALID,0,VALID,96.6152,VALID,-0.0849042,VALID,19.0053,VALID,88,VALID,0.770508,
2003-02-01, 02:01:00,VALID,919.037,VALID,0,VALID,96.6241,VALID,-0.101885,VALID,18.9926,VALID,102,VALID,1.05089,
2003-02-01, 02:02:00,VALID,919.012,VALID,0,VALID,96.6432,VALID,-0.101885,VALID,18.9859,VALID,107,VALID,1.04868,
2003-02-01, 02:03:01,VALID,918.992,VALID,0,VALID,96.6547,VALID,-0.0849042,VALID,18.9764,VALID,122,VALID,0.896635,
2003-02-01, 02:04:01,VALID,918.98,VALID,0,VALID,96.6102,VALID,-0.101885,VALID,18.9734,VALID,118,VALID,0.807644,
2003-02-01, 02:05:01,VALID,918.965,VALID,0,VALID,96.5835,VALID,-0.101885,VALID,18.9663,VALID,113,VALID,0.733319,
2003-02-01, 02:06:00,VALID,918.968,VALID,0,VALID,96.427,VALID,-0.0849042,VALID,18.9831,VALID,90,VALID,0.974414,
2003-02-01, 02:07:01,VALID,918.936,VALID,0,VALID,96.3088,VALID,-0.101885,VALID,18.9961,VALID,117,VALID,0.985983,
2003-02-01, 02:08:00,VALID,918.92,VALID,0.2,VALID,96.3673,VALID,-0.0849042,VALID,19.0117,VALID,138,VALID,1.00802,
2003-02-01, 02:09:00,VALID,918.915,VALID,0,VALID,96.5707,VALID,-0.0679233,VALID,19.0219,VALID,150,VALID,1.54828,
2003-02-01, 02:10:00,VALID,918.876,VALID,0,VALID,96.8403,VALID,-0.101885,VALID,19.0055,VALID,142,VALID,0.705181,
2003-02-01, 02:11:01,VALID,918.841,VALID,0,VALID,97.0222,VALID,-0.101885,VALID,18.9695,VALID,139,VALID,0.936472,
2003-02-01, 02:12:00,VALID,918.83,VALID,0,VALID,97.1455,VALID,-0.101885,VALID,18.9376,VALID,146,VALID,1.20122,
2003-02-01, 02:13:01,VALID,918.83,VALID,0,VALID,97.251,VALID,-0.118866,VALID,18.9314,VALID,145,VALID,1.35857,
2003-02-01, 02:14:01,VALID,918.807,VALID,0,VALID,97.3235,VALID,-0.101885,VALID,18.9081,VALID,149,VALID,1.0884,
2003-02-01, 02:15:00,VALID,918.802,VALID,0,VALID,97.3451,VALID,-0.0849042,VALID,18.8922,VALID,154,VALID,1.14924,
2003-02-01, 02:16:01,VALID,918.776,VALID,0,VALID,97.3744,VALID,-0.101885,VALID,18.8924,VALID,167,VALID,1.17548,
2003-02-01, 02:17:00,VALID,918.733,VALID,0,VALID,97.4138,VALID,-0.101885,VALID,18.8929,VALID,179,VALID,1.28686,
2003-02-01, 02:18:01,VALID,918.719,VALID,0,VALID,97.4354,VALID,-0.0509425,VALID,18.8827,VALID,190,VALID,1.00144,
2003-02-01, 02:19:00,VALID,918.689,VALID,0,VALID,97.4672,VALID,-0.0679233,VALID,18.8889,VALID,159,VALID,1.19552,
2003-02-01, 02:20:01,VALID,918.669,VALID,0,VALID,97.5295,VALID,0.0169808,VALID,18.8977,VALID,115,VALID,0.449678,
2003-02-01, 02:21:00,VALID,918.66,VALID,0,VALID,97.5054,VALID,0.0169808,VALID,18.878,VALID,112,VALID,0.761523,
2003-02-01, 02:22:00,VALID,918.623,VALID,0,VALID,97.4481,VALID,-0.0169808,VALID,18.8721,VALID,158,VALID,1.12993,
2003-02-01, 02:23:01,VALID,918.593,VALID,0,VALID,97.4011,VALID,0,VALID,18.8579,VALID,173,VALID,1.52843,
2003-02-01, 02:24:01,VALID,918.577,VALID,0,VALID,97.3795,VALID,0,VALID,18.8813,VALID,168,VALID,0.705236,
2003-02-01, 02:25:01,VALID,918.584,VALID,0,VALID,97.3566,VALID,0,VALID,18.8845,VALID,178,VALID,0.850195,
2003-02-01, 02:26:01,VALID,918.577,VALID,0,VALID,97.3312,VALID,0.0169808,VALID,18.8877,VALID,152,VALID,0.735352,
2003-02-01, 02:27:01,VALID,918.545,VALID,0,VALID,97.3235,VALID,0,VALID,18.8845,VALID,159,VALID,0.611779,
2003-02-01, 02:28:00,VALID,918.547,VALID,0,VALID,97.3019,VALID,0,VALID,18.8813,VALID,156,VALID,0.537891,
2003-02-01, 02:29:01,VALID,918.534,VALID,0,VALID,97.2943,VALID,0.0509425,VALID,18.8679,VALID,153,VALID,0.606641,
2003-02-01, 02:30:01,VALID,918.532,VALID,0,VALID,97.3134,VALID,0.0169808,VALID,18.8649,VALID,131,VALID,0.612331,
2003-02-01, 02:31:01,VALID,918.544,VALID,0,VALID,97.1824,VALID,0,VALID,18.8455,VALID,155,VALID,0.855152,
2003-02-01, 02:32:01,VALID,918.533,VALID,0,VALID,97.0107,VALID,0.0509425,VALID,18.8455,VALID,162,VALID,1.06289,
2003-02-01, 02:33:01,VALID,918.53,VALID,0,VALID,96.6648,VALID,0.0169808,VALID,18.8425,VALID,156,VALID,1.24063,
2003-02-01, 02:34:01,VALID,918.529,VALID,0,VALID,96.4372,VALID,-0.0169808,VALID,18.8651,VALID,153,VALID,1.05137,
2003-02-01, 02:35:01,VALID,918.513,VALID,0,VALID,96.1066,VALID,0,VALID,18.8877,VALID,150,VALID,1.34195,
2003-02-01, 02:36:01,VALID,918.514,VALID,0,VALID,95.8129,VALID,0,VALID,18.9469,VALID,147,VALID,1.10732,
2003-02-01, 02:37:01,VALID,918.522,VALID,0,VALID,95.584,VALID,0,VALID,18.972,VALID,151,VALID,0.922081,
2003-02-01, 02:38:01,VALID,918.517,VALID,0,VALID,95.4568,VALID,-0.0169808,VALID,18.9981,VALID,154,VALID,0.976963,
2003-02-01, 02:39:01,VALID,918.499,VALID,0,VALID,95.2648,VALID,-0.0169808,VALID,19.0043,VALID,161,VALID,1.1873,
2003-02-01, 02:40:01,VALID,918.472,VALID,0,VALID,94.8719,VALID,0,VALID,19.0235,VALID,167,VALID,1.18053,
2003-02-01, 02:41:01,VALID,918.46,VALID,0,VALID,94.9138,VALID,-0.0169808,VALID,19.065,VALID,160,VALID,1.03466,
2003-02-01, 02:42:01,VALID,918.428,VALID,0,VALID,94.9291,VALID,-0.0169808,VALID,19.098,VALID,153,VALID,0.501803,
2003-02-01, 02:43:01,VALID,918.413,VALID,0,VALID,94.9215,VALID,0,VALID,19.1013,VALID,143,VALID,0.509079,
2003-02-01, 02:44:01,VALID,918.415,VALID,0,VALID,94.9266,VALID,0.0169808,VALID,19.0849,VALID,150,VALID,0.494932,
2003-02-01, 02:45:01,VALID,918.384,VALID,0,VALID,95.0474,VALID,0,VALID,19.0921,VALID,77,VALID,0.194336,
2003-02-01, 02:46:00,VALID,918.396,VALID,0,VALID,95.088,VALID,0,VALID,19.0821,VALID,91,VALID,0.548483,
2003-02-01, 02:47:00,VALID,918.393,VALID,0,VALID,95.0588,VALID,0,VALID,19.0794,VALID,103,VALID,0.294408,
2003-02-01, 02:48:00,VALID,918.35,VALID,0,VALID,94.9901,VALID,0,VALID,19.0528,VALID,131,VALID,0.532853,
2003-02-01, 02:49:00,VALID,918.344,VALID,0,VALID,95.0842,VALID,0,VALID,19.0729,VALID,144,VALID,0.602179,
2003-02-01, 02:50:00,VALID,918.346,VALID,0,VALID,95.0957,VALID,0,VALID,19.0625,VALID,155,VALID,0.462377,
2003-02-01, 02:51:00,VALID,918.341,VALID,0,VALID,95.0893,VALID,0,VALID,19.0593,VALID,147,VALID,0.445884,
2003-02-01, 02:52:00,VALID,918.352,VALID,0,VALID,95.1465,VALID,0,VALID,19.0627,VALID,153,VALID,0.205929,
2003-02-01, 02:53:00,VALID,918.337,VALID,0,VALID,95.1643,VALID,0,VALID,19.0528,VALID,161,VALID,0.392064,
2003-02-01, 02:54:00,VALID,918.334,VALID,0,VALID,95.3004,VALID,0,VALID,19.0627,VALID,165,VALID,0,
2003-02-01, 02:55:00,VALID,918.332,VALID,0,VALID,95.4047,VALID,0,VALID,19.0528,VALID,165,VALID,0,
2003-02-01, 02:56:00,VALID,918.323,VALID,0,VALID,95.4772,VALID,0.0169808,VALID,19.0461,VALID,164,VALID,0,
2003-02-01, 02:57:00,VALID,918.318,VALID,0,VALID,95.584,VALID,0.0169808,VALID,19.0302,VALID,132,VALID,0.403988,
2003-02-01, 02:58:00,VALID,918.303,VALID,0,VALID,95.6654,VALID,0,VALID,19.017,VALID,134,VALID,0.705181,
2003-02-01, 02:59:00,VALID,918.292,VALID,0,VALID,95.7709,VALID,-0.0169808,VALID,19.0172,VALID,143,VALID,0.558594,
2003-02-01, 03:00:00,VALID,918.298,VALID,0,VALID,95.8599,VALID,-0.0169808,VALID,19.011,VALID,132,VALID,0.730664,
2003-02-01, 03:01:00,VALID,918.277,VALID,0,VALID,95.8243,VALID,0,VALID,18.9877,VALID,111,VALID,0.830387,
2003-02-01, 03:02:00,VALID,918.269,VALID,0,VALID,95.8154,VALID,0,VALID,18.9946,VALID,137,VALID,0.704644,
2003-02-01, 03:03:00,VALID,918.267,VALID,0,VALID,95.8663,VALID,-0.0339617,VALID,18.9983,VALID,118,VALID,0.512035,
2003-02-01, 03:04:00,VALID,918.265,VALID,0,VALID,95.8866,VALID,-0.0169808,VALID,18.9981,VALID,118,VALID,0.472852,
2003-02-01, 03:05:00,VALID,918.251,VALID,0,VALID,96.01,VALID,0,VALID,18.9946,VALID,113,VALID,0.361328,
2003-02-01, 03:06:00,VALID,918.235,VALID,0,VALID,96.1422,VALID,-0.0169808,VALID,18.9981,VALID,138,VALID,0.408253,
2003-02-01, 03:07:00,VALID,918.226,VALID,0,VALID,96.2923,VALID,0,VALID,18.975,VALID,137,VALID,0.205469,
2003-02-01, 03:08:00,VALID,918.233,VALID,0,VALID,96.4003,VALID,0,VALID,18.9787,VALID,103,VALID,0.504492,
2003-02-01, 03:09:00,VALID,918.245,VALID,0,VALID,96.4525,VALID,-0.0169808,VALID,18.9787,VALID,100,VALID,0.642736,
2003-02-01, 03:10:00,VALID,918.24,VALID,0,VALID,96.4372,VALID,0,VALID,18.9531,VALID,120,VALID,0.539907,
2003-02-01, 03:11:00,VALID,918.24,VALID,0,VALID,96.4436,VALID,0,VALID,18.9531,VALID,120,VALID,0.418945,
2003-02-01, 03:12:00,VALID,918.235,VALID,0,VALID,96.4627,VALID,0,VALID,18.9365,VALID,113,VALID,0.295312,
2003-02-01, 03:13:00,VALID,918.24,VALID,0,VALID,96.5351,VALID,-0.0169808,VALID,18.969,VALID,112,VALID,0.173047,
2003-02-01, 03:14:00,VALID,918.21,VALID,0,VALID,96.5593,VALID,0,VALID,18.9621,VALID,112,VALID,0.0520833,
2003-02-01, 03:15:00,VALID,918.206,VALID,0,VALID,96.7106,VALID,0,VALID,18.9782,VALID,112,VALID,0.120477,
2003-02-01, 03:16:00,VALID,918.195,VALID,0,VALID,96.689,VALID,0,VALID,18.9618,VALID,113,VALID,0.0766859,
2003-02-01, 03:17:00,VALID,918.177,VALID,0,VALID,96.7233,VALID,0,VALID,18.9625,VALID,139,VALID,0.246795,
2003-02-01, 03:18:00,VALID,918.155,VALID,0,VALID,96.8276,VALID,0,VALID,18.9424,VALID,135,VALID,0.635156,
2003-02-01, 03:19:00,VALID,918.127,VALID,0,VALID,96.8607,VALID,0,VALID,18.9494,VALID,137,VALID,0.999789,
2003-02-01, 03:20:00,VALID,918.116,VALID,0,VALID,96.9331,VALID,0,VALID,18.9625,VALID,139,VALID,0.90024,
2003-02-01, 03:21:00,VALID,918.115,VALID,0,VALID,96.9929,VALID,0,VALID,18.9464,VALID,121,VALID,0.889423,
2003-02-01, 03:22:00,VALID,918.101,VALID,0,VALID,96.9738,VALID,0,VALID,18.9337,VALID,122,VALID,0.949747,
2003-02-01, 03:23:00,VALID,918.106,VALID,0,VALID,96.9802,VALID,0,VALID,18.9235,VALID,131,VALID,0.754434,
2003-02-01, 03:24:00,VALID,918.126,VALID,0,VALID,97.0845,VALID,0,VALID,18.9238,VALID,130,VALID,0.762109,
2003-02-01, 03:25:00,VALID,918.119,VALID,0,VALID,97.1124,VALID,-0.0169808,VALID,18.9307,VALID,131,VALID,0.965074,
2003-02-01, 03:26:00,VALID,918.114,VALID,0,VALID,97.1824,VALID,-0.0169808,VALID,18.9141,VALID,145,VALID,1.00103,
2003-02-01, 03:27:00,VALID,918.1,VALID,0,VALID,97.2714,VALID,0,VALID,18.9076,VALID,129,VALID,0.858373,
2003-02-01, 03:28:00,VALID,918.088,VALID,0.2,VALID,97.3604,VALID,-0.0169808,VALID,18.8919,VALID,137,VALID,0.604235,
2003-02-01, 03:29:00,VALID,918.085,VALID,0,VALID,97.4278,VALID,0,VALID,18.8818,VALID,117,VALID,0.828125,
2003-02-01, 03:30:00,VALID,918.081,VALID,0,VALID,97.466,VALID,0,VALID,18.8651,VALID,132,VALID,0.637195,
2003-02-01, 03:31:00,VALID,918.073,VALID,0,VALID,97.3922,VALID,0,VALID,18.8624,VALID,134,VALID,1.3776,
2003-02-01, 03:32:00,VALID,918.059,VALID,0,VALID,97.2154,VALID,0,VALID,18.8656,VALID,138,VALID,1.31414,
2003-02-01, 03:33:00,VALID,918.057,VALID,0,VALID,97.0489,VALID,-0.0169808,VALID,18.8686,VALID,143,VALID,1.24579,
2003-02-01, 03:34:00,VALID,918.054,VALID,0,VALID,96.8581,VALID,0,VALID,18.8875,VALID,155,VALID,1.27083,
2003-02-01, 03:35:00,VALID,918.041,VALID,0,VALID,96.7615,VALID,0,VALID,18.9108,VALID,141,VALID,0.780248,